Location: Albany
(35.0000°S, 118.0000°E)
Time: 01:41:55
(UTC-05:00)

JAS-1B - Visible Passes

Search period start: 19 January 2017 00:00
Search period end: 29 January 2017 00:00
Orbit: 911 x 1744 km, 99.0° (Epoch: 18 January)

Date Brightness Start Highest point End Pass type
(mag) Time Alt. Az. Time Alt. Az. Time Alt. Az.
19 Jan 9.1 14:26:13 10° SE 14:31:25 24° E 14:36:07 10° NE visible
20 Jan 8.5 14:44:40 10° SSE 14:50:39 36° E 14:55:57 10° NNE visible
21 Jan 7.8 15:03:23 10° SSE 15:09:47 53° E 15:15:25 10° N visible
22 Jan 7.2 15:22:17 10° SSE 15:28:51 77° ENE 15:34:37 10° N visible
23 Jan 9.6 13:54:22 10° ESE 13:56:12 11° E 13:57:59 10° ENE visible
23 Jan 7.1 15:41:20 10° S 15:47:50 74° WSW 15:53:34 10° NNW visible
24 Jan 9.3 14:11:27 10° SE 14:15:31 18° E 14:19:21 10° NE visible
25 Jan 8.8 14:29:35 10° SE 14:34:46 27° E 14:39:34 10° NNE visible
26 Jan 8.2 14:48:07 10° SSE 14:53:57 40° E 14:59:16 10° NNE visible
27 Jan 7.5 15:06:53 10° SSE 15:13:03 60° E 15:18:39 10° N visible
28 Jan 7.0 15:25:50 10° SSE 15:32:04 88° ENE 15:37:45 10° NNW visible
